Location: Maddington
(51.2000°N, 1.9167°W)
Time: 02:50:31
(UTC+00:00)

Cosmos 1842 - Pass Details

Date: 18 September 2020
Orbit: 521 x 537 km, 82.5° (Epoch: 18 October)

Event Time Altitude Azimuth Distance (km) Brightness Sun altitude
Rises 18:59:59 0° 347° (NNW) 2,664 7.2 -7.9°
Reaches altitude 10° 19:02:08 10° 345° (NNW) 1,771 6.3 -8.3°
Maximum altitude 19:06:00 68° 263° (W) 568 3.6 -8.9°
Drops below altitude 10° 19:09:50 10° 180° (S) 1,757 5.8 -9.4°
Sets 19:11:58 0° 178° (S) 2,642 6.6 -9.8°
